Location: CCZU
(31.6840°N, 119.9550°E)
Time: 18:33:51
(UTC+08:00)

Tiangong 2 - Pass Details

Date: 04 May 2019
Orbit: 379 x 387 km, 42.8° (Epoch: 24 May)

Event Time Altitude Azimuth Distance (km) Brightness Sun altitude
Exits shadow 04:34:50 - 278° (W) 1,537 3.6 -8.3°
Reaches altitude 10° 04:35:14 10° 282° (WNW) 1,397 3.4 -8.2°
Maximum altitude 04:37:52 24° 339° (NNW) 850 2.8 -7.7°
Drops below altitude 10° 04:40:30 10° 35° (NE) 1,404 4.9 -7.2°
Sets 04:42:50 0° 50° (NE) 2,261 6.7 -6.8°
